FW8563 Weather Reports


Display with metric or nautical units.
time (UTC)temp
F
wind
direction
speed
MPH
gust
MPH
rain 1hr
in
rain 24hr
in
rain mn
in
humidity
%
barometer
mb
20260901051427 69 33 3.0 8.0 0.00 0.00 0.00 76 1020.8
20260901050926 69 19 3.0 7.0 0.00 0.00 0.00 76 1020.7
20260901050426 69 42 3.0 7.0 0.00 0.00 0.00 76 1020.7
20260901045927 69 11 3.0 8.0 0.00 0.00 0.00 76 1020.7
20260901045429 69 55 3.0 8.0 0.00 0.00 0.00 76 1020.7
20260901044926 69 53 3.0 7.0 0.00 0.00 0.00 76 1020.7
20260901044429 69 353 3.0 7.0 0.00 0.00 0.00 76 1020.8
20260901043926 69 51 3.0 7.0 0.00 0.00 0.00 75 1020.8
20260901043428 69 49 3.0 7.0 0.00 0.00 0.00 75 1020.8
20260901042927 69 52 3.0 6.0 0.00 0.00 0.00 75 1020.9
20260901042428 69 51 4.0 7.0 0.00 0.00 0.00 75 1020.9
20260901041930 69 39 4.0 7.0 0.00 0.00 0.00 75 1021.0
20260901041428 69 65 4.0 9.0 0.00 0.00 0.00 75 1020.9
20260901035922 69 52 2.0 7.0 0.00 0.00 0.00 75 1021.1
20260901035422 69 57 2.0 7.0 0.00 0.00 0.00 75 1021.1
20260901034924 69 54 1.0 4.0 0.00 0.00 0.00 75 1021.1
20260901034424 69 60 1.0 4.0 0.00 0.00 0.00 75 1021.1
20260901033922 69 39 0.0 4.0 0.00 0.00 0.00 75 1021.1
20260901032916 69 24 0.0 1.0 0.00 0.00 0.00 76 1021.1
20260901032415 69 15 0.0 1.0 0.00 0.00 0.00 75 1021.2
20260901031912 69 29 0.0 2.0 0.00 0.00 0.00 76 1021.1
20260901031411 69 29 0.0 2.0 0.00 0.00 0.00 76 1021.2
20260901030909 69 39 0.0 3.0 0.00 0.00 0.00 75 1021.1
20260901030408 69 45 0.0 3.0 0.00 0.00 0.00 74 1021.2
20260901025909 69 62 0.0 2.0 0.00 0.00 0.00 74 1021.2
20260901025408 69 53 0.0 2.0 0.00 0.00 0.00 74 1021.1
20260901024907 69 72 0.0 2.0 0.00 0.00 0.00 73 1021.1
20260901024407 70 34 0.0 1.0 0.00 0.00 0.00 73 1021.0
20260901023905 70 32 0.0 1.0 0.00 0.00 0.00 72 1021.1
20260901023406 70 32 0.0 1.0 0.00 0.00 0.00 72 1021.0
20260901022905 70 37 0.0 1.0 0.00 0.00 0.00 71 1021.1
20260901022404 70 38 0.0 0.0 0.00 0.00 0.00 72 1021.0
20260901021902 70 38 0.0 0.0 0.00 0.00 0.00 72 1021.1
20260901021400 70 39 0.0 0.0 0.00 0.00 0.00 72 1021.1
20260901020859 70 39 0.0 0.0 0.00 0.00 0.00 72 1021.0
20260901020355 70 39 0.0 1.0 0.00 0.00 0.00 72 1021.0
20260901015358 70 38 0.0 2.0 0.00 0.00 0.00 72 1021.0
20260901014856 70 33 0.0 3.0 0.00 0.00 0.00 72 1021.1
20260901014356 71 34 1.0 4.0 0.00 0.00 0.00 72 1021.1
20260901013359 70 14 2.0 4.0 0.00 0.00 0.00 73 1021.0
20260901012856 70 25 3.0 5.0 0.00 0.00 0.00 73 1021.1
20260901012357 70 21 3.0 6.0 0.00 0.00 0.00 73 1021.1
20260901011856 70 30 4.0 8.0 0.00 0.00 0.00 73 1021.1
20260901011356 71 23 4.0 8.0 0.00 0.00 0.00 72 1021.0
20260901010850 71 32 3.0 6.0 0.00 0.00 0.00 71 1021.1
20260901010350 71 25 3.0 6.0 0.00 0.00 0.00 71 1021.1
20260901005851 71 27 3.0 6.0 0.00 0.00 0.00 71 1021.1
20260901005348 71 24 3.0 6.0 0.00 0.00 0.00 71 1021.2
20260901004851 71 33 2.0 5.0 0.00 0.00 0.00 71 1021.0
20260901004348 71 22 1.0 5.0 0.00 0.00 0.00 70 1021.1
20260901003850 71 14 3.0 6.0 0.00 0.00 0.00 70 1021.0
20260901003351 71 23 3.0 6.0 0.00 0.00 0.00 71 1021.0
20260901001850 71 19 2.0 6.0 0.00 0.00 0.00 72 1021.0
20260901001350 71 351 1.0 4.0 0.00 0.00 0.00 73 1021.1
20260901000848 71 15 1.0 3.0 0.00 0.00 0.00 74 1021.2
20260901000348 71 20 1.0 4.0 0.00 0.00 0.00 74 1021.2
20260831235848 71 24 2.0 5.0 0.00 0.00 0.00 75 1021.1
20260831234845 70 25 2.0 5.0 0.00 0.00 0.00 77 1021.1
20260831232844 71 11 2.0 6.0 0.00 0.00 0.00 75 1021.1
20260831232347 71 10 2.0 6.0 0.00 0.00 0.00 76 1021.2
20260831231842 71 5 2.0 5.0 0.00 0.00 0.00 76 1021.1
20260831231342 71 9 2.0 5.0 0.00 0.00 0.00 76 1021.1
20260831230842 71 3 1.0 4.0 0.00 0.00 0.00 76 1021.1
20260831230355 71 10 2.0 7.0 0.00 0.00 0.00 77 1021.0
20260831225342 71 12 2.0 5.0 0.00 0.00 0.00 76 1021.0
20260831224842 71 8 1.0 4.0 0.00 0.00 0.00 76 1021.0
20260831224336 71 7 1.0 4.0 0.00 0.00 0.00 76 1020.9
20260831223831 72 359 1.0 5.0 0.00 0.00 0.00 75 1020.9
20260831223330 72 4 1.0 5.0 0.00 0.00 0.00 74 1020.9
20260831222830 72 352 1.0 4.0 0.00 0.00 0.00 73 1020.9
20260831222331 72 358 2.0 5.0 0.00 0.00 0.00 72 1020.9
20260831221328 73 20 1.0 2.0 0.00 0.00 0.00 70 1020.8
20260831220828 73 9 0.0 2.0 0.00 0.00 0.00 70 1020.8
20260831220327 73 357 0.0 2.0 0.00 0.00 0.00 70 1020.6
20260831215824 73 359 0.0 3.0 0.00 0.00 0.00 70 1020.6
20260831215324 73 20 0.0 3.0 0.00 0.00 0.00 70 1020.6
20260831214824 73 342 0.0 1.0 0.00 0.00 0.00 70 1020.7
20260831214322 73 347 0.0 1.0 0.00 0.00 0.00 70 1020.6
20260831213822 73 336 0.0 1.0 0.00 0.00 0.00 70 1020.7
20260831213322 73 345 0.0 1.0 0.00 0.00 0.00 71 1020.6
20260831212323 73 352 0.0 3.0 0.00 0.00 0.00 71 1020.6
20260831211819 73 330 0.0 3.0 0.00 0.00 0.00 70 1020.6
20260831211321 73 345 0.0 1.0 0.00 0.00 0.00 70 1020.5
20260831210818 73 326 0.0 1.0 0.00 0.00 0.00 69 1020.6
20260831210316 74 302 0.0 2.0 0.00 0.00 0.00 68 1020.5
20260831205816 74 326 1.0 3.0 0.00 0.00 0.00 67 1020.5
20260831204317 73 2 0.0 1.0 0.00 0.00 0.00 68 1020.2
20260831203816 73 342 0.0 0.0 0.00 0.00 0.00 68 1020.3
20260831203318 74 334 0.0 1.0 0.00 0.00 0.00 68 1020.5
20260831202816 74 334 0.0 1.0 0.00 0.00 0.00 68 1020.3
20260831201809 73 355 1.0 3.0 0.00 0.00 0.00 68 1020.2
20260831201305 73 358 1.0 3.0 0.00 0.00 0.00 68 1020.2
20260831200805 73 8 1.0 3.0 0.00 0.00 0.00 68 1020.1
20260831200306 74 0 1.0 3.0 0.00 0.00 0.00 67 1020.1
20260831195804 75 14 1.0 3.0 0.00 0.00 0.00 66 1020.0
20260831195307 75 12 1.0 4.0 0.00 0.00 0.00 66 1019.9
20260831194804 75 359 1.0 5.0 0.00 0.00 0.00 66 1019.9
20260831194306 75 9 1.0 5.0 0.00 0.00 0.00 65 1019.8
20260831193806 75 354 1.0 3.0 0.00 0.00 0.00 65 1019.7
20260831193303 75 321 1.0 4.0 0.00 0.00 0.00 65 1019.6
20260831192806 75 352 1.0 4.0 0.00 0.00 0.00 64 1019.7
20260831192305 76 347 0.0 4.0 0.00 0.00 0.00 64 1019.7
20260831191804 76 25 1.0 5.0 0.00 0.00 0.00 64 1019.6
20260831191303 76 326 1.0 5.0 0.00 0.00 0.00 63 1019.6
20260831190802 76 11 1.0 4.0 0.00 0.00 0.00 63 1019.6
20260831185759 76 11 0.0 3.0 0.00 0.00 0.00 63 1019.5
20260831185306 76 8 0.0 2.0 0.00 0.00 0.00 63 1019.5
20260831184800 76 326 0.0 6.0 0.00 0.00 0.00 62 1019.4
20260831184300 77 10 0.0 6.0 0.00 0.00 0.00 62 1019.4
20260831183759 77 13 0.0 3.0 0.00 0.00 0.00 61 1019.4
20260831183258 77 342 0.0 4.0 0.00 0.00 0.00 61 1019.4
20260831182259 78 273 0.0 5.0 0.00 0.00 0.00 60 1019.3
20260831181255 78 278 1.0 7.0 0.00 0.00 0.00 59 1019.0
20260831180755 78 327 0.0 3.0 0.00 0.00 0.00 59 1019.1
20260831180257 79 4 0.0 3.0 0.00 0.00 0.00 59 1019.1
20260831175755 79 274 0.0 3.0 0.00 0.00 0.00 59 1019.0
20260831175256 79 279 0.0 4.0 0.00 0.00 0.00 58 1019.1
20260831174756 80 264 0.0 4.0 0.00 0.00 0.00 57 1018.9
20260831174254 80 4 0.0 4.0 0.00 0.00 0.00 57 1019.0
20260831173754 81 276 0.0 4.0 0.00 0.00 0.00 56 1019.0
20260831172754 82 282 0.0 4.0 0.00 0.00 0.00 55 1019.0
20260831172254 82 254 1.0 4.0 0.00 0.00 0.00 54 1019.0
20260831171756 83 250 1.0 6.0 0.00 0.00 0.00 54 1018.9
20260831171255 83 267 1.0 6.0 0.00 0.00 0.00 54 1019.0
20260831170754 83 270 2.0 7.0 0.00 0.00 0.00 53 1019.0
20260831170255 83 242 2.0 7.0 0.00 0.00 0.00 53 1019.0
20260831165754 83 266 2.0 6.0 0.00 0.00 0.00 53 1019.0
20260831165254 84 229 2.0 8.0 0.00 0.00 0.00 53 1019.1
20260831164751 84 283 1.0 8.0 0.00 0.00 0.00 52 1019.1
20260831164250 84 167 1.0 8.0 0.00 0.00 0.00 52 1019.1
20260831162747 84 248 3.0 8.0 0.00 0.00 0.00 52 1019.1
20260831162247 85 252 3.0 7.0 0.00 0.00 0.00 52 1019.1
20260831161747 85 261 4.0 9.0 0.00 0.00 0.00 53 1019.1
20260831161250 85 276 3.0 9.0 0.00 0.00 0.00 52 1019.1
20260831160750 86 290 2.0 8.0 0.00 0.00 0.00 53 1019.1
20260831160247 87 230 1.0 8.0 0.00 0.00 0.00 52 1019.0
20260831155747 86 203 2.0 8.0 0.00 0.00 0.00 53 1019.0
20260831155240 86 250 3.0 10.0 0.00 0.00 0.00 52 1019.1
20260831154742 87 264 2.0 9.0 0.00 0.00 0.00 51 1019.2
20260831154242 87 210 2.0 8.0 0.00 0.00 0.00 49 1019.1
20260831153742 87 255 2.0 6.0 0.00 0.00 0.00 49 1019.1
20260831153241 87 239 2.0 6.0 0.00 0.00 0.00 48 1019.1
20260831152741 87 219 1.0 6.0 0.00 0.00 0.00 47 1019.1
20260831152241 87 4 1.0 6.0 0.00 0.00 0.00 45 1019.1
20260831151741 87 256 1.0 6.0 0.00 0.00 0.00 45 1019.2
20260831151241 87 261 2.0 7.0 0.00 0.00 0.00 45 1019.2
20260831150741 86 334 2.0 9.0 0.00 0.00 0.00 46 1019.2
20260831150243 86 244 3.0 9.0 0.00 0.00 0.00 47 1019.2
20260831145743 87 233 3.0 8.0 0.00 0.00 0.00 50 1019.2
20260831145241 87 226 1.0 8.0 0.00 0.00 0.00 49 1019.2
20260831144739 87 266 2.0 8.0 0.00 0.00 0.00 52 1019.1
20260831144233 86 268 4.0 10.0 0.00 0.00 0.00 51 1019.1
20260831143726 86 272 4.0 10.0 0.00 0.00 0.00 51 1019.1
20260831143223 87 274 3.0 10.0 0.00 0.00 0.00 51 1019.1
20260831142723 87 230 4.0 11.0 0.00 0.00 0.00 52 1019.1
20260831142224 87 255 4.0 11.0 0.00 0.00 0.00 51 1019.0
20260831141722 87 215 2.0 10.0 0.00 0.00 0.00 51 1019.1
20260831141222 87 225 0.0 7.0 0.00 0.00 0.00 50 1019.1
20260831140719 87 75 0.0 2.0 0.00 0.00 0.00 51 1019.1
20260831140220 86 32 1.0 5.0 0.00 0.00 0.00 50 1019.0
20260831135717 86 90 2.0 8.0 0.00 0.00 0.00 50 1019.1
20260831135219 87 308 1.0 8.0 0.00 0.00 0.00 51 1019.2
20260831134719 87 285 0.0 4.0 0.00 0.00 0.00 48 1019.2
20260831134217 87 286 1.0 6.0 0.00 0.00 0.00 49 1019.1
20260831133217 87 303 1.0 6.0 0.00 0.00 0.00 49 1019.3
20260831132717 87 288 1.0 6.0 0.00 0.00 0.00 50 1019.2
20260831132217 87 281 1.0 4.0 0.00 0.00 0.00 48 1019.4
20260831131716 87 70 1.0 6.0 0.00 0.00 0.00 49 1019.5
20260831131217 87 278 1.0 6.0 0.00 0.00 0.00 49 1019.5
20260831130215 87 125 0.0 6.0 0.00 0.00 0.00 48 1019.6
20260831125713 86 108 1.0 6.0 0.00 0.00 0.00 49 1019.6
20260831125213 86 23 1.0 5.0 0.00 0.00 0.00 49 1019.7
20260831124711 87 6 0.0 4.0 0.00 0.00 0.00 52 1019.6
20260831124212 86 94 1.0 4.0 0.00 0.00 0.00 49 1019.6
20260831123711 86 101 0.0 3.0 0.00 0.00 0.00 50 1019.6
20260831122711 86 326 0.0 4.0 0.00 0.00 0.00 50 1019.7
20260831122214 85 192 1.0 4.0 0.00 0.00 0.00 50 1019.6
20260831121711 85 326 1.0 4.0 0.00 0.00 0.00 50 1019.7
20260831121213 85 310 1.0 6.0 0.00 0.00 0.00 51 1019.7
20260831120710 85 13 1.0 6.0 0.00 0.00 0.00 51 1019.6
20260831120211 86 23 1.0 5.0 0.00 0.00 0.00 51 1019.8
20260831115711 85 330 1.0 5.0 0.00 0.00 0.00 49 1019.8
20260831115210 85 329 0.0 2.0 0.00 0.00 0.00 50 1019.8
20260831114709 85 75 1.0 5.0 0.00 0.00 0.00 50 1019.9
20260831114208 85 107 0.0 5.0 0.00 0.00 0.00 49 1020.0
20260831113710 86 285 0.0 2.0 0.00 0.00 0.00 50 1019.9
20260831113209 84 222 0.0 2.0 0.00 0.00 0.00 51 1020.0
20260831112707 83 212 0.0 3.0 0.00 0.00 0.00 49 1020.1
20260831111707 83 280 2.0 8.0 0.00 0.00 0.00 52 1020.0
20260831111204 83 324 1.0 8.0 0.00 0.00 0.00 50 1020.0
20260831110705 83 349 0.0 5.0 0.00 0.00 0.00 50 1020.0
20260831110205 83 282 1.0 5.0 0.00 0.00 0.00 52 1020.0
20260831105203 82 347 2.0 7.0 0.00 0.00 0.00 53 1020.0
20260831104658 82 50 1.0 6.0 0.00 0.00 0.00 50 1020.0
20260831104202 82 262 2.0 9.0 0.00 0.00 0.00 55 1019.9
20260831103659 82 290 2.0 9.0 0.00 0.00 0.00 56 1019.9
20260831103201 82 2 2.0 7.0 0.00 0.00 0.00 55 1019.8
20260831102700 82 49 2.0 7.0 0.00 0.00 0.00 57 1019.9
20260831102156 82 11 2.0 7.0 0.00 0.00 0.00 55 1019.9
20260831101659 82 22 0.0 4.0 0.00 0.00 0.00 54 1020.0
20260831101159 82 277 1.0 5.0 0.00 0.00 0.00 53 1019.9
20260831100157 81 271 1.0 6.0 0.00 0.00 0.00 55 1019.9
20260831095657 81 321 1.0 6.0 0.00 0.00 0.00 55 1019.9
20260831095158 81 44 1.0 4.0 0.00 0.00 0.00 56 1020.0
20260831094657 81 321 1.0 5.0 0.00 0.00 0.00 56 1020.0
20260831093656 80 62 1.0 5.0 0.00 0.00 0.00 55 1020.1
20260831093155 80 2 0.0 5.0 0.00 0.00 0.00 56 1020.1
20260831092656 81 321 0.0 3.0 0.00 0.00 0.00 54 1020.1
20260831091656 80 284 0.0 2.0 0.00 0.00 0.00 55 1020.2
20260831091155 80 226 0.0 2.0 0.00 0.00 0.00 55 1020.1
20260831090657 79 268 0.0 3.0 0.00 0.00 0.00 58 1020.1
20260831090155 78 319 1.0 6.0 0.00 0.00 0.00 53 1020.1
20260831085154 78 13 0.0 3.0 0.00 0.00 0.00 61 1020.1
20260831084656 77 299 1.0 5.0 0.00 0.00 0.00 64 1020.0
20260831083656 77 72 1.0 5.0 0.00 0.00 0.00 64 1019.9
20260831083155 77 105 1.0 5.0 0.00 0.00 0.00 66 1019.8
20260831082655 76 36 1.0 6.0 0.00 0.00 0.00 67 1019.8
20260831082157 76 32 1.0 6.0 0.00 0.00 0.00 67 1019.7
20260831081156 75 341 2.0 5.0 0.00 0.00 0.00 69 1019.7
20260831080155 75 41 2.0 6.0 0.00 0.00 0.00 69 1019.7
20260831075158 74 18 2.0 8.0 0.00 0.00 0.00 71 1019.6
20260831074657 74 30 2.0 7.0 0.00 0.00 0.00 71 1019.7
20260831074156 74 10 1.0 5.0 0.00 0.00 0.00 75 1019.5
20260831073152 73 44 3.0 7.0 0.00 0.00 0.00 75 1019.5
20260831072655 73 40 3.0 7.0 0.00 0.00 0.00 75 1019.4
20260831072153 73 28 2.0 7.0 0.00 0.00 0.00 75 1019.4
20260831071655 72 60 1.0 5.0 0.00 0.00 0.00 77 1019.4
20260831071152 72 41 2.0 7.0 0.00 0.00 0.00 77 1019.5
20260831070649 72 34 3.0 7.0 0.00 0.00 0.00 76 1019.3
20260831070155 72 343 2.0 7.0 0.00 0.00 0.00 78 1019.3
20260831065648 71 70 3.0 8.0 0.00 0.00 0.00 79 1019.2
20260831065144 71 339 3.0 9.0 0.00 0.00 0.00 81 1019.2
20260831064646 71 44 3.0 9.0 0.00 0.00 0.00 80 1019.1
20260831064145 70 36 3.0 7.0 0.00 0.00 0.00 79 1019.2
20260831063145 70 27 2.0 7.0 0.00 0.00 0.00 80 1019.2
20260831062643 69 45 2.0 7.0 0.00 0.00 0.00 80 1019.2
20260831062142 69 353 3.0 6.0 0.00 0.00 0.00 80 1019.2
20260831061642 69 10 3.0 7.0 0.00 0.00 0.00 80 1019.2
20260831060642 68 55 2.0 7.0 0.00 0.00 0.00 79 1019.2
20260831060145 68 22 2.0 7.0 0.00 0.00 0.00 79 1019.1
20260831055642 68 57 2.0 7.0 0.00 0.00 0.00 79 1019.0
20260831055142 68 23 2.0 7.0 0.00 0.00 0.00 78 1019.0
20260831054642 68 39 1.0 6.0 0.00 0.00 0.00 77 1019.0
20260831053129 67 20 2.0 5.0 0.00 0.00 0.00 76 1019.1
20260831052625 67 26 3.0 6.0 0.00 0.00 0.00 76 1019.0
20260831052124 67 52 2.0 6.0 0.00 0.00 0.00 76 1018.9